FENGYUN 1C DEB

Satellite information

Favourite Embed

Satellite Type and Status

DEBRISIN ORBIT

Key statistics

Satellite FENGYUN 1C DEB at a glance.

Uptime

9715

Days in orbit

Revolutions

≈ 14.5

Per day

Orbit

SSO

Sun Synchronous Orbit

Inclination

98.7

Latest

Satellite identification and parameters

Extended collection of information and parameters for FENGYUN 1C DEB.

Object identification

Identified? True

Debris? True

Object name: FENGYUN 1C DEB

International designator: 1999-025ATA

Object number (NORAD): 30740

Object ID (CCSDS): 30740

Country: PEOPLES REPUBLIC OF CHINA (PRC)

Current information (Y/N): Y

RCS size: SMALL

Orbital parameters

Period: 99.182 minutes

Inclination: 98.6893 deg

SMA: 7097.664 km

Apoapsis: 742.351 km

Periapsis: 696.707 km

RAAN: 90.3143 deg

Eccentricy: 0.00321542

Argument of periapsis: 140.0466 deg

Mean anomaly: 220.3103 deg

Mean motion: 14.51876132 rev/day

Mean motion (dot): 0.00021785 rev/day2

B* drag term: 0.0053662776 1/REarth

Two-line elements (TLE)

Creation date: Dec. 11, 2025, 10:54 a.m.

Reference frame: TEME

Reference center: EARTH

Epoch: Dec. 11, 2025, 6:17 a.m. UTC

TLE line 0: 0 FENGYUN 1C DEB

TLE line 1: 1 30740U 99025ATA 25345.26202045 .00021785 00000-0 53663-2 0 9997

TLE line 2: 2 30740 98.6893 90.3143 0032154 140.0466 220.3103 14.51876132976264

Live tracking on map

Real-time ground track for satellite FENGYUN 1C DEB.

In-orbit conjunctions

A list of the most updated potential collisions computed for object FENGYUN 1C DEB.

Target Orbit TCA Probability of collision Miss distance Type
COSMOS 2251 DEB LEO 2025-05-29 19:56:11 0.0002055601 85.0 (m) DEBRIS
THOR ABLESTAR DEB LEO 2025-03-30 08:21:21 0.0004356667 61.0 (m) DEBRIS
COSMOS 2251 DEB LEO 2024-11-11 20:19:36 0.0004178387 144.0 (m) DEBRIS
IRIDIUM 17 LEO 2024-06-08 03:26:00 0.0004924277 207.0 (m) PAYLOAD

Associated space launch

Chinese polar orbiting meteorological satellite

FENGYUN 1C DEB was lifted into orbit during the mission ‘Long March 4B | Feng Yun 1C’, on board a Long March 4B space rocket.

The launch took place on May 10, 1999, 1:33 a.m. from Launch Complex 7.

For more information about the launch, click the button.

Launch to space Long March 4B | Feng Yun 1C
Long March 4B | Feng Yun 1C

Agency: N/A

Status: Launch Successful

Launch date: May 10, 1999, 1:33 a.m. UTC

Rocket: Long March 4B

Launch pad: Launch Complex 7

Location: Taiyuan Satellite Launch Center, People's Republic of China

...

Latest news about this satellite

There are no fresh news available about this satellite. Check back as we update our databases every day.


Newsletter sign-up

Weekly statistics, charts and insights to help you stay on top of the space industry.